Vorticity
3 1 4 6 6 7 6 6 9 10 11 13 11 7 8 9 5 3 5 5 3 2 2 5 6 8 9 9 9 9 9 9 9 9 10 9 8 8 7 7 6 5 4 4 5 7 6 7 6 5 5 6 6 6 7 6 6 5 5 6 6 5 6 6 7 6 7 7 6 6 7 7 7 6 6 7 6 6 5 4 4 5 4 3 4
-1 -1 4 6 4 4 5 5 8 10 7 6 8 8 6 5 2 0 3 7 6 1 -3 -2 2 4 5 5 4 4 3 3 3 3 4 5 5 6 6 6 7 7 8 8 7 8 7 6 6 6 4 3 3 3 4 5 6 6 5 5 5 6 5 5 5 5 6 7 7 7 6 6 7 7 7 8 8 8 7 6 5 5 5 5 4
5 3 3 5 2 -1 1 5 7 7 3 -2 2 6 2 -0 3 4 5 9 11 8 4 2 2 4 5 5 5 5 2 1 2 2 2 3 4 5 5 5 5 5 5 7 8 9 10 9 8 8 8 8 7 5 3 3 4 4 5 4 4 4 4 4 4 3 3 5 6 7 6 6 6 6 7 7 8 8 8 8 8 8 8 7 7
4 2 2 5 4 0 2 5 1 0 3 1 0 0 -5 -4 5 7 3 5 10 13 14 11 7 5 4 1 3 8 8 6 6 6 7 8 7 7 8 8 8 8 7 6 7 8 10 11 10 8 8 8 10 10 8 7 6 5 4 5 5 4 4 4 3 3 4 4 5 6 6 7 6 6 7 6 6 6 7 8 8 9 10 9 9
-2 -3 8 9 -0 -4 1 6 3 -1 4 9 8 3 -1 2 10 9 4 7 11 13 15 18 15 10 5 2 3 7 8 8 7 6 6 5 3 4 6 8 8 9 9 9 8 8 8 9 11 11 10 8 7 8 8 9 9 9 8 7 6 6 6 6 6 5 5 6 6 6 6 7 7 8 8 8 8 7 6 7 7 7 8 9 9
3 -0 16 17 1 -2 5 5 -0 -2 8 14 5 -7 -4 7 11 8 6 9 10 4 4 11 13 10 6 6 8 7 5 4 2 1 3 3 3 4 4 5 6 6 7 7 8 9 8 7 8 9 10 11 9 8 8 8 8 8 9 9 9 8 8 9 9 8 7 7 8 8 8 8 8 8 7 6 8 8 7 8 9 8 8 7 8
1 -5 3 5 2 10 19 12 -2 -6 1 4 -8 -14 -1 12 11 6 5 7 8 0 -5 -2 4 8 7 4 4 4 4 5 3 1 3 4 4 3 1 2 4 3 3 3 5 8 8 7 6 6 6 7 8 8 8 8 7 6 7 8 8 9 9 9 9 9 8 8 8 9 10 9 10 9 7 6 7 7 6 7 8 8 9 9 9
5 2 0 -1 -2 2 9 10 7 5 6 5 4 6 10 7 4 5 4 2 5 6 -0 -4 -2 6 10 4 0 2 5 8 7 4 4 5 6 6 3 3 4 3 4 5 6 7 8 8 7 6 6 6 5 6 6 6 7 6 6 6 6 7 9 9 9 9 9 8 8 9 8 8 9 8 6 6 7 7 6 8 11 10 9 9 9
5 5 5 7 6 0 -5 -4 2 11 14 12 13 13 11 12 14 13 5 -2 0 4 4 2 -1 1 6 6 5 5 5 5 6 6 5 3 7 12 10 7 5 3 5 8 10 10 9 8 8 7 7 7 6 6 6 6 6 7 7 7 7 7 8 8 9 9 8 9 9 9 8 8 8 7 4 4 5 6 7 9 10 9 7 7 8
6 5 4 6 10 9 3 -5 -7 -2 2 3 2 -1 5 19 23 14 7 6 5 3 2 1 -0 -2 0 4 5 5 5 4 4 6 3 -2 0 7 9 10 6 1 2 6 8 9 9 8 8 6 6 6 5 4 5 6 7 7 6 5 5 8 9 9 9 8 7 8 9 10 11 11 8 5 4 4 3 4 7 8 8 6 4 5 6
10 9 6 5 5 8 9 7 4 2 -1 -2 -4 -8 -5 0 -4 -11 -9 -3 2 6 7 4 4 4 4 5 5 4 5 6 6 5 3 1 0 -2 -1 7 10 8 9 9 6 5 7 9 9 7 7 9 8 6 5 6 8 9 9 6 4 4 6 7 9 10 9 7 7 9 12 15 13 8 6 6 5 6 7 5 2 1 1 2 4
11 11 10 9 7 7 7 8 9 10 9 8 7 7 9 8 3 -2 -4 -4 -4 0 4 4 3 5 5 4 5 6 5 4 4 5 4 6 8 4 -0 1 2 3 7 7 4 4 4 5 5 4 5 7 10 11 10 8 8 8 10 11 9 9 9 8 8 9 11 9 7 7 10 14 16 14 9 8 7 7 8 6 1 -1 -1 -0 0
9 8 9 9 8 8 8 6 5 5 8 11 12 12 13 13 12 11 11 9 4 1 2 4 3 4 4 2 3 5 2 -0 1 3 2 1 4 4 2 0 -2 -1 2 2 4 6 6 5 4 3 2 2 4 8 9 10 10 8 6 7 8 9 11 11 10 10 11 13 12 9 7 10 17 18 11 8 9 9 7 4 1 -1 0 1 1
10 8 7 6 6 7 7 5 4 -0 -1 3 5 2 0 1 2 4 6 7 6 5 5 5 5 6 6 5 5 3 1 1 3 3 2 2 3 3 2 1 1 4 6 6 7 8 7 8 8 8 9 8 7 7 8 10 11 10 9 7 6 6 6 8 9 8 8 12 15 16 11 7 12 19 16 7 5 8 8 5 2 0 -1 -1 -1
11 12 12 11 11 10 8 7 8 6 3 4 4 1 -0 1 2 3 4 5 6 6 5 5 7 8 8 9 10 6 5 9 10 7 6 6 7 7 7 4 2 2 4 7 8 7 5 5 6 7 9 10 11 10 10 10 9 9 10 10 9 8 7 8 10 10 8 7 9 14 16 12 9 15 19 13 5 3 6 5 3 1 -2 -2 -1
9 10 11 11 12 12 11 11 13 13 10 9 10 8 7 7 7 7 7 7 7 8 11 12 10 8 7 8 8 9 12 13 12 10 9 8 9 11 12 12 9 5 5 7 9 9 7 6 7 9 9 8 9 10 10 9 8 8 9 9 9 8 8 9 11 11 12 11 8 7 10 13 12 11 14 16 11 6 7 7 6 5 3 2 2
9 9 9 9 10 10 10 10 11 12 11 11 11 11 12 13 12 10 9 10 11 12 13 14 12 10 10 8 8 13 15 11 9 11 14 13 12 11 11 12 11 9 9 10 11 9 8 8 11 13 12 11 12 12 12 10 9 9 8 8 9 8 8 9 11 11 11 12 14 12 8 8 9 9 9 12 11 10 9 7 4 4 4 3 4
8 8 8 8 9 9 9 10 9 10 10 10 9 9 11 12 12 13 13 12 13 12 11 12 11 10 9 9 11 14 11 7 9 13 14 13 12 10 9 9 9 9 9 10 10 9 9 9 10 9 6 6 7 8 8 7 7 7 7 7 8 8 8 7 8 11 12 9 9 12 14 11 9 6 5 6 6 7 7 5 3 2 3 2 3
9 9 9 9 10 11 11 11 12 12 11 11 10 9 9 9 9 11 11 11 11 11 10 10 8 6 8 11 13 13 10 9 12 13 12 12 11 11 10 9 9 9 10 11 11 9 9 10 11 10 10 10 11 11 10 9 8 7 8 8 7 8 10 9 8 8 12 12 8 5 8 12 13 11 8 6 5 6 6 4 2 1 2 2 2
12 12 12 11 10 11 12 12 13 14 14 13 13 12 11 10 9 9 9 9 10 9 9 9 7 8 12 14 13 11 11 11 12 12 12 12 12 11 11 10 11 12 12 12 12 11 12 13 13 13 13 13 14 15 16 16 15 13 12 12 11 10 9 12 13 11 10 11 11 7 5 8 12 14 14 11 10 11 13 12 11 8 6 5 6
13 14 13 13 12 11 12 13 13 13 13 13 13 12 12 11 10 10 9 8 8 9 10 10 10 10 12 12 11 11 12 13 14 14 14 13 12 12 12 12 13 13 12 13 13 13 12 12 11 12 12 11 11 11 12 14 14 14 14 13 13 13 12 11 12 14 14 12 11 9 8 9 10 12 13 13 12 14 15 17 18 19 18 16 15
12 13 13 13 12 11 12 13 12 11 11 11 11 11 11 11 11 10 9 9 9 9 9 10 10 10 9 9 10 13 14 15 15 16 15 14 12 13 13 13 13 12 12 13 13 12 11 11 11 12 11 10 10 11 13 14 15 16 15 14 13 14 16 15 14 14 16 16 14 11 10 10 10 11 12 13 9 4 1 2 4 7 11 13 13
12 13 13 13 13 13 13 12 11 11 11 12 12 12 11 10 10 10 10 9 9 9 8 9 9 8 9 10 12 13 13 13 14 14 15 14 15 15 14 12 11 12 13 12 11 10 10 10 10 12 13 14 16 16 15 14 13 13 13 14 14 13 12 14 14 14 15 16 16 14 12 11 10 8 7 5 -4 -11 -9 -2 3 5 5 4 5
11 12 13 13 13 14 14 13 13 13 13 13 13 12 12 12 12 11 11 11 10 10 9 8 9 10 11 11 11 12 13 12 11 12 14 17 17 15 12 12 14 14 13 10 9 9 9 9 11 13 14 15 12 9 6 4 5 7 9 11 12 12 11 11 11 11 13 15 16 14 12 11 11 9 7 5 0 -1 5 11 13 12 11 9 8
12 13 12 11 11 13 14 14 14 13 13 13 12 11 12 12 12 12 12 11 11 11 11 11 10 11 11 10 10 12 13 13 11 10 12 15 13 11 13 16 15 11 8 9 11 12 12 12 12 11 8 5 2 1 2 4 6 9 12 14 14 14 15 14 13 12 11 12 15 16 13 10 9 10 12 13 14 15 15 14 14 14 15 15 14
13 13 13 13 12 12 12 12 12 12 11 11 11 12 12 13 14 15 14 13 13 13 13 12 10 11 12 11 9 10 12 13 11 8 11 16 16 14 12 9 6 7 11 14 15 13 12 11 7 3 1 1 3 6 9 13 16 17 18 19 20 21 20 20 21 21 19 18 17 15 13 12 10 10 13 14 13 13 12 11 12 12 10 8 6
8 8 10 11 10 10 10 11 11 11 11 11 11 11 11 11 11 11 11 11 10 9 9 9 9 10 11 9 9 11 11 12 11 12 19 23 16 6 0 1 7 15 17 14 11 9 8 6 3 1 3 7 11 14 16 18 20 20 19 19 19 20 20 20 22 24 26 31 30 19 10 10 10 9 11 12 10 10 9 8 6 4 2 2 2
6 7 8 9 9 10 9 9 10 11 11 12 12 11 10 10 9 8 9 9 7 7 9 9 10 13 15 16 19 19 17 20 22 21 21 17 5 -3 1 10 15 16 12 8 8 8 6 4 4 6 9 12 15 17 18 19 19 18 18 18 18 17 16 15 16 16 17 27 36 30 17 11 10 8 8 8 8 8 7 6 6 5 6 8 9
8 9 9 8 9 10 10 10 10 10 10 11 10 10 11 11 11 12 12 11 11 13 16 17 18 21 22 24 26 28 30 33 28 17 14 12 5 5 15 19 13 9 7 7 6 6 7 9 10 12 14 16 17 18 18 18 19 19 20 21 20 20 19 17 17 16 13 16 28 32 22 11 6 4 5 7 11 14 15 12 11 10 9 9 9
8 8 8 8 8 10 11 9 9 10 12 11 11 14 17 16 16 17 17 19 21 22 23 24 23 23 25 29 32 34 35 28 13 5 12 19 16 15 16 13 7 7 9 8 8 9 12 14 15 16 18 18 17 17 16 16 17 17 19 20 19 19 20 19 19 20 18 16 20 26 22 14 8 9 12 14 16 17 15 12 10 11 12 15 19
10 11 12 11 11 11 11 13 16 19 19 20 23 25 23 21 21 22 23 25 27 26 26 26 24 26 32 33 26 20 18 13 9 11 16 18 16 12 9 7 8 10 10 11 13 14 14 15 17 17 17 16 14 14 14 14 14 14 14 15 16 16 18 19 18 19 19 18 18 20 20 18 17 18 19 18 16 15 15 16 19 22 25 29 31
12 12 12 13 16 17 19 25 31 30 29 34 35 30 26 28 30 29 28 26 26 26 25 20 18 21 23 17 9 9 12 14 17 19 16 12 10 8 7 9 12 12 11 11 13 14 14 15 14 11 10 11 11 10 10 10 11 12 13 13 14 14 15 17 19 20 21 20 20 19 20 21 21 20 18 17 18 20 22 24 26 27 28 28 26
16 17 19 23 25 26 30 35 34 30 33 37 34 30 31 33 28 24 23 24 24 24 19 12 15 21 16 5 4 10 11 9 11 12 9 7 8 9 11 13 13 12 12 12 11 11 11 9 9 9 9 9 8 8 9 10 10 10 10 9 10 11 12 14 17 17 17 18 19 20 20 20 20 19 20 21 22 22 22 22 22 22 22 20 19
27 30 31 33 33 34 37 36 26 21 24 25 23 25 25 20 18 22 24 25 29 30 23 19 25 29 20 11 10 11 9 10 11 10 8 9 11 13 13 12 10 9 11 11 10 9 9 9 10 11 10 9 10 10 9 9 9 10 13 16 18 21 23 25 24 22 21 22 22 21 22 23 23 22 21 20 18 18 19 19 20 20 19 17 17
39 37 35 36 33 29 28 24 16 12 11 8 10 13 10 12 22 25 14 10 22 30 24 18 21 20 15 13 14 13 12 12 11 10 11 13 13 11 9 8 8 8 8 9 10 11 12 12 12 12 11 11 11 11 11 14 18 22 25 28 29 29 30 30 29 27 26 25 26 26 26 24 20 17 15 16 18 20 21 21 21 19 19 19 19
32 27 25 25 19 13 14 14 13 16 14 7 4 5 8 18 26 18 4 5 16 15 6 4 10 11 9 9 11 10 11 12 12 13 13 11 9 8 8 8 9 10 11 13 13 13 13 13 12 13 14 13 13 16 21 25 28 29 30 31 31 32 31 29 28 28 28 27 26 24 20 16 14 14 17 20 21 20 20 19 19 18 18 19 19
18 15 14 14 14 15 19 19 18 20 17 7 1 4 13 22 22 13 11 16 13 3 -0 5 9 9 8 9 11 12 12 13 12 10 9 7 7 8 9 10 12 13 13 12 12 12 12 13 14 15 16 18 22 26 28 29 31 32 31 30 30 29 28 27 27 25 24 22 19 17 15 14 15 16 17 17 15 14 15 15 15 15 14 14 14
12 11 10 10 12 16 18 17 16 13 6 1 4 13 22 27 21 11 9 14 15 13 15 15 11 10 12 14 15 14 11 10 9 7 7 7 7 9 11 12 13 12 10 10 11 12 13 15 15 16 20 25 26 26 29 33 35 31 27 24 22 20 21 22 21 18 16 15 15 15 14 14 13 13 13 13 12 11 11 12 12 13 13 14 17
17 16 17 17 17 19 20 14 8 3 -0 4 13 20 22 22 14 3 4 15 20 19 16 12 11 14 15 13 12 10 8 6 6 6 7 9 11 14 14 13 11 10 10 11 11 13 14 14 14 17 25 29 28 28 34 38 35 28 25 24 20 18 19 20 20 19 17 15 14 14 11 9 9 9 10 11 12 12 14 18 20 20 22 25 24
26 27 28 26 22 17 12 6 4 6 10 13 17 19 16 10 5 7 15 21 20 15 14 15 14 13 12 9 7 6 5 5 7 10 12 16 18 17 16 15 14 13 12 11 11 11 11 11 13 20 27 31 32 33 36 36 29 22 18 17 17 20 23 22 19 16 13 11 9 8 6 6 10 14 17 21 23 23 22 23 23 21 23 24 18
23 23 24 20 12 3 2 9 16 17 15 14 16 19 15 9 10 19 24 20 15 14 15 13 9 8 7 5 4 5 8 10 13 14 15 14 13 13 14 16 15 14 12 10 10 10 9 9 13 20 27 33 36 35 33 28 21 13 12 15 21 25 24 18 11 6 5 6 5 4 8 15 22 28 30 27 22 21 20 19 19 21 25 24 16
20 20 11 3 1 3 11 20 18 9 7 10 10 10 13 15 17 20 17 12 11 11 9 6 6 6 5 5 7 11 13 13 11 10 9 7 6 8 10 12 13 14 13 11 10 10 9 10 13 18 26 36 40 36 29 21 14 10 13 19 26 27 19 9 5 3 3 2 1 5 16 26 26 22 18 14 12 16 18 16 16 19 21 19 14
17 16 3 -7 -3 6 14 16 10 4 6 8 5 8 17 21 18 13 10 8 8 7 4 5 7 6 6 10 13 13 10 8 7 6 5 3 3 4 6 8 11 13 13 11 10 10 10 10 11 15 25 39 44 37 26 17 13 13 14 15 21 25 18 7 5 5 -0 -2 6 17 24 22 13 7 8 11 15 18 19 19 21 21 18 15 13
7 7 3 1 2 5 6 8 8 5 3 5 10 18 21 15 8 8 8 6 4 4 5 7 9 9 10 12 11 8 6 5 5 4 3 1 1 2 4 5 7 9 11 11 10 9 10 11 11 13 24 40 46 36 22 13 12 15 16 13 13 13 10 7 8 6 0 6 19 26 22 14 8 9 16 21 23 25 26 25 25 22 17 17 17
7 8 10 8 5 4 6 8 5 2 4 12 19 19 13 7 7 8 6 3 4 7 9 10 10 10 10 9 7 5 4 4 3 3 2 0 0 1 1 2 3 6 9 10 10 9 10 10 11 11 19 36 48 39 22 13 12 12 14 15 11 4 5 10 10 5 9 22 28 23 19 21 19 18 19 20 23 32 37 33 26 23 23 23 22
10 9 9 8 8 10 11 7 2 5 14 19 17 12 8 8 8 5 3 4 8 9 9 9 9 8 8 7 5 3 3 3 4 3 1 1 1 1 1 0 1 3 6 7 10 11 10 9 11 10 12 28 46 45 26 14 12 13 17 21 17 10 9 12 9 8 18 27 19 8 14 25 23 16 15 13 11 20 32 33 28 29 31 27 24
6 4 4 6 8 9 9 7 9 16 20 16 11 9 9 6 4 3 6 8 9 9 9 8 7 6 6 4 3 2 2 3 3 3 2 3 4 3 1 -0 -0 1 3 5 7 11 11 10 11 10 8 17 38 49 36 14 6 14 25 25 20 15 12 7 7 17 26 21 7 1 10 21 22 16 13 10 7 10 20 24 21 20 19 16 15
9 9 9 10 12 15 17 19 20 20 16 11 8 8 6 3 3 5 7 8 9 9 7 5 5 5 5 4 3 3 3 2 3 3 4 4 4 3 2 1 -0 1 2 2 3 8 12 12 10 10 9 9 23 45 49 25 5 12 26 24 16 17 15 5 7 23 28 17 6 7 13 22 25 18 8 4 6 9 14 18 18 16 14 12 10
20 20 20 20 21 21 21 19 15 12 10 8 8 6 4 3 5 7 8 9 10 9 6 5 5 5 5 5 4 4 3 3 3 3 3 4 5 4 2 1 0 0 1 3 2 3 8 13 12 11 10 7 10 32 52 42 18 12 20 22 18 17 14 9 16 27 24 10 3 6 12 20 23 16 6 3 2 -1 -2 1 5 9 13 16 15
17 17 17 18 18 16 14 12 10 9 9 9 7 5 5 5 7 8 9 9 9 7 5 5 5 4 5 6 5 4 4 3 3 3 3 3 5 5 3 2 1 0 -0 2 2 0 3 10 13 12 11 9 7 17 39 50 37 16 11 20 26 16 5 10 25 26 12 3 3 5 9 15 16 12 9 7 1 -5 -4 1 4 4 4 7 12
14 13 12 12 12 11 11 12 11 11 10 8 7 7 8 8 8 10 10 9 8 7 6 6 5 5 6 6 5 5 5 4 3 3 4 3 3 5 4 1 1 1 0 1 3 1 0 5 11 13 12 10 8 9 22 44 51 31 12 17 29 17 1 11 27 19 0 -1 8 8 5 9 11 10 12 14 12 10 13 18 19 15 6 1 5
Height
5714 5714 5715 5715 5715 5716 5716 5717 5718 5718 5718 5719 5719 5719 5719 5720 5721 5722 5723 5724 5724 5724 5724 5725 5725 5725 5725 5725 5725 5726 5726 5726 5726 5726 5726 5727 5727 5727 5727 5727 5728 5728 5729 5729 5730 5731 5731 5732 5732 5732 5732 5733 5733 5733 5734 5734 5734 5735 5735 5735 5736 5736 5736 5737 5737 5736 5736 5736 5737 5737 5737 5738 5738 5739 5739 5740 5741 5742 5742 5742 5743 5744 5744 5745 5746
5709 5710 5710 5711 5711 5712 5713 5713 5714 5714 5715 5716 5716 5715 5715 5716 5717 5719 5720 5721 5721 5721 5721 5722 5722 5723 5723 5723 5723 5723 5724 5724 5724 5724 5724 5724 5725 5725 5725 5725 5725 5725 5726 5726 5726 5727 5727 5728 5728 5729 5729 5730 5730 5730 5731 5731 5731 5732 5732 5732 5732 5733 5733 5733 5734 5734 5733 5733 5734 5734 5734 5735 5735 5735 5735 5736 5737 5737 5738 5738 5738 5739 5740 5741 5742
5705 5705 5706 5706 5707 5709 5709 5709 5710 5710 5711 5712 5713 5712 5712 5712 5714 5715 5716 5717 5718 5718 5718 5718 5718 5719 5720 5720 5720 5721 5721 5722 5722 5722 5722 5722 5722 5722 5722 5722 5722 5722 5722 5723 5723 5723 5724 5724 5724 5724 5725 5725 5726 5726 5727 5727 5727 5728 5729 5729 5729 5729 5730 5730 5730 5730 5730 5730 5730 5730 5731 5731 5731 5731 5731 5732 5733 5733 5733 5734 5734 5735 5735 5736 5736
5700 5700 5701 5702 5703 5704 5705 5706 5706 5707 5707 5707 5708 5709 5708 5708 5709 5710 5711 5712 5713 5713 5714 5715 5715 5715 5717 5718 5718 5718 5719 5719 5719 5719 5719 5719 5718 5718 5718 5718 5718 5718 5719 5719 5719 5720 5720 5720 5720 5721 5721 5721 5721 5722 5722 5723 5723 5723 5724 5725 5725 5725 5725 5726 5726 5726 5726 5726 5725 5725 5726 5727 5727 5727 5727 5728 5729 5729 5729 5729 5730 5730 5730 5731 5731
5696 5696 5697 5698 5699 5700 5701 5702 5702 5703 5704 5704 5704 5704 5704 5704 5705 5706 5706 5707 5708 5709 5709 5710 5711 5712 5713 5714 5715 5715 5715 5715 5715 5715 5715 5715 5715 5715 5715 5714 5714 5714 5714 5715 5715 5716 5716 5716 5716 5717 5717 5717 5717 5718 5718 5718 5719 5719 5719 5720 5720 5721 5721 5721 5721 5722 5722 5722 5721 5721 5721 5722 5722 5722 5723 5723 5724 5725 5725 5725 5726 5726 5726 5726 5727
5693 5693 5694 5694 5695 5696 5697 5698 5699 5700 5700 5701 5701 5700 5700 5700 5701 5701 5702 5702 5703 5704 5705 5706 5707 5709 5710 5710 5711 5711 5711 5711 5711 5711 5711 5711 5711 5711 5712 5712 5711 5711 5710 5711 5711 5711 5711 5712 5712 5712 5712 5713 5713 5713 5714 5714 5714 5715 5715 5715 5716 5716 5717 5717 5717 5717 5717 5718 5718 5717 5716 5717 5717 5718 5718 5718 5719 5720 5720 5721 5721 5722 5722 5722 5722
5688 5689 5690 5691 5691 5692 5693 5694 5695 5695 5696 5697 5697 5697 5696 5697 5696 5696 5698 5698 5698 5699 5701 5701 5703 5704 5705 5705 5706 5707 5707 5707 5708 5708 5708 5707 5707 5708 5708 5708 5708 5708 5708 5707 5707 5707 5707 5707 5707 5707 5708 5708 5708 5709 5709 5710 5710 5710 5710 5711 5711 5712 5712 5713 5713 5713 5713 5713 5713 5713 5713 5712 5712 5713 5713 5713 5714 5714 5715 5716 5716 5717 5717 5718 5718
5683 5683 5685 5685 5686 5687 5688 5689 5690 5690 5691 5691 5692 5692 5692 5693 5692 5692 5693 5694 5694 5695 5696 5697 5698 5699 5699 5699 5701 5702 5703 5704 5704 5704 5704 5703 5703 5703 5704 5704 5704 5704 5704 5704 5704 5703 5703 5703 5703 5703 5703 5703 5703 5704 5704 5704 5705 5705 5706 5706 5706 5707 5707 5708 5708 5708 5708 5709 5709 5709 5709 5709 5708 5708 5708 5708 5708 5709 5709 5710 5711 5711 5712 5712 5713
5678 5678 5679 5680 5680 5682 5683 5684 5684 5685 5686 5686 5686 5687 5687 5688 5688 5688 5689 5689 5689 5689 5690 5692 5694 5694 5693 5694 5696 5697 5699 5699 5699 5699 5699 5698 5698 5698 5699 5699 5699 5699 5700 5700 5700 5700 5699 5699 5699 5698 5698 5698 5698 5699 5699 5699 5700 5700 5701 5701 5701 5702 5702 5703 5703 5703 5703 5704 5704 5704 5704 5705 5704 5704 5704 5703 5703 5704 5704 5705 5706 5706 5707 5707 5708
5673 5673 5674 5674 5675 5676 5677 5678 5679 5679 5680 5680 5681 5682 5682 5683 5683 5684 5684 5684 5684 5684 5685 5687 5688 5688 5687 5688 5690 5692 5693 5694 5694 5694 5694 5693 5693 5694 5694 5693 5693 5693 5694 5695 5695 5695 5695 5694 5694 5694 5694 5693 5693 5693 5694 5694 5695 5695 5695 5696 5696 5696 5697 5697 5697 5698 5698 5699 5699 5699 5700 5700 5700 5699 5699 5699 5698 5699 5699 5700 5701 5701 5702 5702 5703
5668 5668 5668 5669 5670 5671 5672 5673 5673 5674 5674 5674 5675 5676 5677 5677 5678 5678 5679 5680 5679 5679 5679 5681 5681 5681 5681 5683 5684 5685 5687 5689 5689 5689 5688 5688 5688 5689 5689 5688 5688 5688 5688 5688 5689 5690 5689 5689 5689 5690 5690 5689 5688 5688 5688 5688 5689 5690 5690 5690 5690 5690 5691 5691 5692 5692 5692 5692 5693 5693 5694 5694 5695 5694 5694 5694 5693 5694 5694 5695 5696 5696 5697 5697 5698
5662 5662 5663 5664 5664 5665 5666 5667 5668 5668 5668 5668 5669 5669 5670 5670 5670 5671 5673 5674 5675 5675 5674 5675 5675 5675 5676 5677 5677 5677 5680 5682 5683 5683 5683 5683 5683 5683 5683 5683 5683 5682 5682 5682 5683 5683 5683 5684 5684 5684 5684 5684 5683 5683 5683 5683 5683 5683 5684 5684 5684 5684 5684 5685 5685 5686 5686 5686 5687 5687 5687 5687 5688 5689 5689 5688 5688 5688 5689 5689 5690 5691 5691 5692 5693
5655 5656 5657 5657 5658 5659 5660 5661 5662 5662 5663 5663 5663 5664 5663 5663 5663 5664 5665 5666 5669 5670 5669 5670 5669 5669 5670 5671 5671 5672 5675 5676 5675 5676 5677 5677 5678 5678 5677 5678 5678 5677 5677 5677 5677 5677 5677 5677 5677 5677 5678 5678 5678 5677 5677 5677 5677 5677 5677 5677 5677 5677 5677 5678 5678 5679 5679 5680 5680 5681 5680 5680 5681 5682 5682 5682 5683 5683 5683 5683 5684 5684 5685 5686 5686
5649 5649 5650 5651 5652 5652 5653 5654 5655 5656 5657 5657 5657 5657 5657 5657 5657 5658 5658 5659 5661 5663 5663 5664 5663 5663 5664 5664 5664 5666 5670 5669 5668 5669 5670 5671 5672 5672 5671 5672 5673 5671 5671 5671 5671 5671 5670 5670 5671 5671 5670 5671 5671 5671 5671 5671 5670 5670 5670 5670 5671 5671 5671 5671 5671 5671 5671 5672 5673 5674 5674 5674 5674 5675 5675 5676 5676 5677 5677 5677 5678 5678 5679 5679 5680
5641 5642 5643 5644 5645 5645 5646 5647 5648 5649 5650 5650 5651 5651 5651 5651 5651 5652 5652 5652 5654 5655 5656 5657 5657 5657 5657 5656 5656 5660 5663 5662 5662 5663 5664 5665 5666 5665 5665 5666 5666 5665 5664 5664 5665 5664 5664 5664 5664 5664 5663 5663 5664 5665 5665 5664 5663 5663 5663 5663 5663 5664 5664 5665 5664 5664 5664 5664 5665 5666 5667 5667 5667 5668 5668 5668 5669 5669 5670 5670 5671 5671 5672 5673 5673
5634 5635 5636 5637 5638 5639 5639 5640 5641 5642 5642 5643 5643 5643 5644 5645 5645 5645 5646 5646 5647 5648 5648 5648 5649 5649 5650 5649 5649 5654 5656 5654 5655 5657 5657 5658 5659 5658 5658 5659 5658 5658 5658 5658 5658 5658 5657 5658 5657 5657 5656 5656 5656 5657 5658 5657 5656 5656 5656 5656 5656 5657 5657 5657 5656 5656 5657 5657 5658 5659 5659 5660 5660 5660 5660 5660 5661 5661 5662 5663 5664 5663 5664 5665 5666
5627 5628 5629 5630 5631 5632 5633 5633 5634 5635 5635 5635 5636 5636 5636 5637 5638 5639 5639 5640 5640 5641 5640 5640 5639 5640 5642 5641 5643 5647 5648 5646 5647 5649 5650 5651 5651 5650 5650 5650 5650 5651 5651 5651 5651 5650 5650 5650 5650 5649 5649 5648 5649 5650 5650 5649 5648 5648 5648 5649 5649 5650 5649 5649 5648 5648 5649 5649 5650 5651 5651 5652 5652 5652 5652 5652 5652 5652 5653 5655 5656 5654 5655 5657 5658
5619 5620 5622 5623 5625 5625 5626 5627 5627 5628 5628 5628 5628 5629 5629 5630 5630 5631 5632 5632 5633 5633 5633 5633 5632 5632 5634 5634 5636 5640 5640 5638 5640 5642 5642 5644 5644 5643 5643 5642 5642 5643 5643 5643 5643 5642 5642 5643 5642 5642 5642 5641 5641 5642 5642 5641 5640 5640 5641 5641 5641 5642 5641 5641 5640 5641 5641 5642 5642 5643 5643 5643 5643 5643 5643 5643 5643 5643 5644 5646 5646 5645 5646 5648 5648
5612 5613 5614 5616 5617 5618 5619 5619 5620 5620 5621 5621 5621 5622 5622 5622 5623 5624 5625 5625 5625 5625 5626 5626 5625 5626 5628 5628 5630 5632 5632 5632 5634 5635 5635 5637 5636 5636 5635 5634 5635 5636 5636 5636 5636 5635 5635 5634 5634 5635 5635 5634 5633 5633 5633 5633 5632 5632 5632 5632 5632 5633 5632 5632 5632 5633 5633 5633 5634 5634 5635 5635 5635 5635 5635 5634 5634 5634 5634 5636 5636 5636 5637 5638 5638
5605 5605 5606 5608 5609 5610 5610 5611 5612 5613 5614 5614 5615 5615 5615 5615 5616 5617 5617 5618 5618 5618 5619 5619 5618 5620 5623 5623 5623 5625 5626 5626 5627 5628 5628 5629 5629 5628 5628 5627 5628 5628 5628 5628 5628 5627 5627 5625 5626 5628 5627 5626 5625 5625 5624 5625 5624 5623 5623 5623 5623 5623 5623 5624 5624 5624 5624 5625 5625 5625 5626 5626 5626 5626 5626 5625 5625 5624 5624 5625 5625 5626 5627 5628 5629
5597 5598 5599 5600 5601 5602 5602 5603 5604 5605 5606 5607 5608 5608 5608 5608 5609 5609 5610 5611 5611 5612 5612 5611 5612 5615 5616 5616 5616 5619 5620 5620 5621 5621 5621 5621 5621 5621 5621 5621 5621 5621 5621 5621 5620 5619 5619 5617 5617 5619 5619 5617 5617 5617 5617 5617 5616 5615 5615 5614 5613 5613 5613 5614 5614 5614 5615 5615 5615 5615 5616 5616 5617 5617 5616 5616 5616 5615 5615 5615 5616 5616 5617 5618 5619
5589 5590 5591 5592 5593 5594 5595 5596 5596 5598 5599 5600 5600 5601 5601 5602 5602 5603 5604 5604 5605 5606 5605 5604 5606 5608 5609 5609 5610 5613 5615 5614 5614 5615 5615 5614 5614 5614 5614 5615 5614 5614 5614 5614 5613 5612 5611 5609 5609 5611 5611 5609 5609 5609 5609 5608 5608 5607 5606 5605 5604 5604 5603 5604 5604 5605 5605 5605 5605 5606 5606 5606 5607 5607 5607 5606 5606 5606 5606 5607 5607 5607 5608 5608 5608
5582 5583 5584 5585 5586 5587 5588 5589 5589 5590 5592 5593 5593 5593 5594 5595 5595 5596 5597 5598 5599 5599 5598 5598 5600 5602 5602 5602 5604 5606 5608 5607 5607 5608 5608 5608 5608 5608 5608 5608 5608 5607 5607 5607 5606 5605 5605 5603 5602 5603 5602 5601 5601 5601 5600 5599 5599 5598 5598 5597 5596 5595 5594 5594 5594 5594 5595 5595 5595 5596 5596 5596 5596 5597 5596 5596 5596 5596 5597 5598 5598 5598 5598 5598 5599
5575 5576 5577 5578 5579 5580 5581 5582 5582 5584 5585 5585 5586 5586 5586 5588 5589 5590 5590 5591 5592 5592 5591 5591 5594 5595 5596 5596 5597 5599 5600 5600 5600 5601 5602 5602 5602 5602 5602 5602 5601 5601 5601 5600 5600 5599 5598 5597 5596 5595 5595 5594 5593 5593 5592 5591 5590 5589 5588 5587 5586 5585 5584 5584 5584 5584 5584 5585 5585 5585 5586 5585 5585 5586 5586 5585 5586 5586 5587 5588 5588 5588 5588 5588 5589
5567 5568 5569 5571 5572 5573 5574 5575 5575 5576 5577 5578 5579 5579 5579 5581 5582 5583 5583 5584 5585 5585 5584 5586 5588 5589 5589 5589 5590 5592 5593 5593 5594 5595 5595 5595 5595 5596 5596 5596 5595 5595 5595 5594 5593 5593 5592 5591 5590 5589 5588 5587 5586 5585 5584 5582 5581 5580 5579 5577 5576 5575 5574 5574 5573 5573 5573 5573 5574 5574 5575 5575 5575 5575 5575 5575 5575 5576 5577 5577 5578 5578 5578 5579 5579
5560 5561 5562 5564 5565 5566 5567 5568 5568 5569 5569 5571 5571 5571 5572 5574 5576 5576 5576 5577 5578 5578 5578 5580 5582 5582 5582 5582 5583 5585 5587 5587 5588 5588 5589 5589 5590 5590 5590 5590 5590 5589 5589 5588 5587 5587 5586 5585 5584 5583 5582 5580 5579 5577 5575 5574 5572 5571 5569 5568 5567 5566 5564 5563 5563 5562 5562 5562 5562 5563 5564 5564 5565 5565 5565 5565 5566 5566 5567 5567 5567 5568 5568 5569 5570
5553 5554 5556 5557 5559 5559 5560 5561 5561 5561 5562 5563 5564 5564 5565 5568 5569 5569 5569 5570 5571 5572 5573 5575 5575 5575 5575 5577 5578 5579 5580 5581 5582 5583 5583 5584 5585 5585 5585 5585 5584 5584 5583 5582 5582 5581 5580 5579 5577 5576 5575 5573 5571 5569 5567 5565 5564 5562 5560 5559 5558 5556 5555 5554 5553 5552 5552 5552 5552 5553 5554 5554 5555 5556 5556 5556 5557 5557 5557 5557 5558 5559 5558 5558 5559
5545 5547 5549 5550 5551 5552 5552 5553 5554 5554 5555 5556 5557 5558 5559 5561 5562 5562 5562 5563 5565 5566 5567 5568 5568 5568 5569 5571 5571 5573 5574 5576 5577 5578 5578 5579 5580 5579 5579 5579 5579 5578 5578 5577 5576 5575 5574 5572 5571 5569 5567 5566 5564 5562 5559 5557 5555 5554 5552 5551 5549 5548 5547 5546 5545 5544 5543 5543 5543 5543 5545 5545 5546 5547 5547 5547 5548 5548 5548 5548 5549 5549 5548 5548 5549
5538 5540 5541 5543 5544 5544 5545 5545 5546 5547 5547 5548 5550 5552 5553 5553 5555 5555 5555 5556 5558 5559 5560 5560 5561 5562 5564 5564 5565 5566 5568 5570 5571 5572 5573 5574 5574 5574 5574 5574 5574 5573 5573 5572 5571 5569 5568 5566 5564 5562 5560 5558 5556 5554 5552 5550 5547 5546 5544 5542 5541 5540 5538 5537 5537 5536 5535 5534 5534 5535 5536 5537 5537 5538 5538 5539 5539 5538 5538 5539 5539 5539 5538 5538 5539
5531 5532 5534 5535 5536 5537 5537 5538 5539 5539 5539 5541 5544 5546 5545 5545 5547 5548 5548 5550 5552 5553 5553 5554 5555 5556 5557 5558 5559 5561 5563 5564 5566 5567 5568 5569 5569 5569 5569 5569 5569 5569 5568 5567 5565 5564 5562 5560 5557 5555 5553 5551 5549 5546 5544 5542 5540 5537 5536 5534 5532 5531 5530 5529 5528 5527 5527 5526 5526 5526 5527 5528 5529 5529 5529 5529 5529 5528 5528 5529 5529 5529 5528 5528 5528
5523 5525 5526 5527 5528 5529 5529 5531 5532 5532 5532 5535 5538 5538 5538 5538 5540 5541 5542 5544 5545 5546 5547 5548 5549 5551 5552 5553 5555 5557 5559 5561 5562 5563 5563 5564 5564 5565 5565 5565 5565 5564 5563 5561 5560 5558 5556 5553 5551 5548 5546 5544 5541 5538 5536 5533 5531 5529 5527 5525 5524 5522 5521 5520 5519 5518 5518 5518 5518 5518 5519 5520 5520 5520 5520 5520 5519 5519 5519 5519 5519 5518 5518 5517 5517
5515 5517 5518 5519 5521 5522 5523 5525 5526 5525 5526 5529 5531 5531 5531 5532 5534 5535 5536 5538 5539 5540 5541 5543 5544 5546 5548 5550 5552 5554 5556 5557 5558 5558 5559 5560 5561 5561 5561 5561 5560 5559 5558 5556 5554 5552 5550 5547 5545 5542 5539 5537 5534 5531 5528 5526 5523 5521 5519 5517 5515 5514 5512 5511 5510 5510 5510 5510 5510 5510 5510 5511 5511 5511 5511 5511 5511 5510 5510 5510 5509 5509 5508 5508 5508
5508 5510 5511 5512 5514 5515 5517 5519 5520 5520 5521 5524 5524 5525 5526 5527 5529 5530 5531 5533 5534 5535 5537 5538 5540 5542 5545 5548 5550 5551 5552 5553 5554 5555 5556 5557 5557 5557 5557 5557 5556 5554 5552 5551 5549 5547 5544 5541 5539 5536 5533 5530 5527 5524 5521 5518 5516 5513 5511 5509 5507 5505 5504 5503 5502 5502 5502 5501 5502 5502 5503 5503 5503 5503 5503 5503 5502 5502 5502 5501 5501 5501 5501 5501 5501
5500 5502 5504 5506 5508 5510 5512 5515 5517 5517 5518 5520 5521 5521 5523 5524 5525 5526 5528 5529 5530 5532 5533 5536 5538 5540 5543 5546 5547 5548 5550 5550 5551 5552 5553 5554 5554 5554 5554 5553 5551 5550 5548 5546 5544 5542 5539 5536 5533 5530 5527 5524 5520 5517 5514 5511 5508 5505 5503 5500 5498 5496 5495 5494 5494 5494 5494 5494 5494 5495 5495 5495 5495 5496 5496 5496 5495 5495 5495 5494 5494 5494 5493 5493 5493
5494 5496 5498 5501 5504 5506 5508 5511 5513 5515 5516 5517 5518 5519 5520 5521 5522 5524 5525 5526 5527 5529 5532 5534 5537 5539 5541 5544 5545 5546 5547 5548 5549 5550 5551 5551 5551 5551 5550 5549 5547 5546 5544 5542 5540 5537 5534 5531 5528 5525 5521 5517 5514 5510 5507 5504 5501 5498 5495 5492 5490 5489 5488 5487 5487 5487 5487 5488 5488 5489 5489 5489 5490 5490 5490 5490 5489 5489 5488 5488 5487 5487 5487 5486 5486
5489 5492 5495 5498 5501 5504 5506 5508 5510 5512 5514 5515 5516 5517 5518 5519 5521 5522 5523 5525 5526 5528 5531 5533 5536 5538 5540 5541 5543 5544 5545 5546 5547 5548 5548 5548 5548 5548 5547 5545 5544 5542 5540 5538 5535 5533 5530 5526 5523 5519 5515 5511 5508 5504 5500 5497 5494 5491 5488 5485 5484 5483 5482 5482 5482 5482 5482 5483 5483 5484 5484 5485 5485 5485 5484 5484 5484 5483 5483 5482 5482 5481 5481 5480 5480
5487 5490 5493 5496 5498 5502 5504 5506 5508 5510 5512 5513 5515 5516 5517 5518 5519 5520 5522 5524 5526 5528 5530 5532 5534 5536 5538 5539 5541 5542 5543 5544 5545 5546 5546 5546 5545 5545 5543 5542 5540 5539 5537 5534 5532 5529 5526 5522 5518 5514 5510 5506 5501 5497 5494 5490 5487 5484 5482 5480 5479 5478 5478 5478 5478 5478 5479 5479 5480 5480 5480 5480 5480 5480 5480 5479 5479 5478 5478 5477 5477 5476 5475 5475 5474
5485 5488 5492 5495 5497 5500 5503 5505 5506 5508 5510 5512 5513 5515 5516 5517 5518 5520 5522 5523 5525 5527 5529 5531 5533 5534 5536 5538 5539 5540 5541 5542 5543 5544 5544 5543 5543 5542 5541 5539 5538 5536 5533 5531 5528 5525 5522 5518 5514 5510 5505 5500 5495 5491 5488 5484 5482 5480 5478 5477 5476 5476 5475 5476 5476 5476 5477 5477 5477 5477 5477 5477 5476 5476 5475 5475 5474 5473 5472 5472 5471 5471 5470 5469 5469
5483 5486 5490 5493 5496 5499 5502 5504 5505 5507 5509 5511 5513 5514 5515 5516 5518 5519 5521 5523 5524 5526 5528 5529 5531 5533 5534 5536 5537 5538 5540 5541 5541 5541 5541 5541 5541 5540 5538 5537 5535 5533 5530 5528 5525 5522 5518 5514 5510 5505 5500 5495 5490 5486 5483 5480 5478 5477 5476 5475 5474 5474 5474 5474 5474 5475 5475 5475 5475 5475 5475 5474 5473 5472 5471 5470 5469 5468 5468 5467 5466 5465 5465 5464 5464
5482 5485 5489 5492 5496 5498 5501 5503 5505 5507 5509 5510 5512 5513 5514 5516 5517 5519 5521 5522 5523 5525 5526 5528 5530 5532 5533 5534 5536 5537 5538 5539 5539 5540 5540 5539 5538 5537 5536 5534 5532 5530 5527 5525 5522 5519 5515 5511 5506 5501 5496 5490 5485 5482 5479 5477 5476 5475 5474 5474 5473 5472 5472 5472 5473 5473 5473 5473 5473 5473 5472 5471 5470 5469 5467 5466 5465 5464 5463 5462 5461 5461 5460 5460 5460
5482 5486 5489 5493 5496 5499 5501 5503 5505 5507 5508 5510 5511 5513 5514 5515 5517 5519 5520 5521 5523 5524 5526 5527 5529 5530 5532 5533 5534 5535 5536 5537 5538 5538 5538 5537 5536 5535 5533 5532 5530 5527 5525 5522 5519 5516 5512 5508 5503 5498 5492 5486 5482 5478 5476 5475 5474 5474 5473 5472 5471 5471 5471 5471 5471 5471 5471 5471 5471 5471 5469 5468 5467 5465 5464 5462 5461 5461 5460 5459 5458 5458 5457 5457 5457
5485 5488 5491 5494 5496 5499 5501 5502 5504 5506 5508 5510 5511 5513 5514 5515 5517 5518 5519 5521 5522 5523 5525 5526 5528 5529 5530 5532 5533 5534 5535 5536 5536 5535 5535 5534 5533 5532 5531 5529 5527 5525 5523 5520 5517 5513 5509 5505 5500 5495 5489 5483 5479 5476 5474 5473 5473 5472 5471 5470 5470 5470 5470 5470 5470 5470 5470 5470 5469 5468 5467 5465 5464 5462 5461 5460 5459 5458 5457 5456 5456 5455 5454 5454 5454
5487 5490 5492 5494 5497 5499 5501 5503 5505 5507 5508 5510 5511 5512 5514 5515 5516 5517 5519 5520 5521 5523 5524 5525 5527 5528 5529 5530 5531 5532 5533 5534 5533 5532 5532 5532 5531 5530 5529 5527 5525 5523 5520 5517 5514 5511 5507 5502 5497 5492 5486 5481 5477 5474 5473 5472 5471 5470 5470 5469 5469 5469 5469 5469 5470 5469 5469 5468 5467 5466 5464 5463 5462 5461 5460 5459 5457 5456 5455 5454 5453 5453 5452 5452 5452
5489 5491 5494 5496 5497 5499 5501 5503 5505 5507 5508 5510 5511 5512 5513 5514 5516 5517 5518 5519 5521 5522 5523 5525 5526 5527 5528 5529 5530 5531 5531 5531 5530 5530 5530 5530 5529 5528 5527 5525 5523 5521 5518 5515 5512 5508 5504 5500 5495 5490 5485 5479 5475 5473 5472 5471 5470 5470 5469 5469 5469 5469 5469 5469 5469 5468 5468 5467 5465 5464 5463 5462 5461 5460 5459 5458 5456 5454 5453 5452 5451 5451 5451 5451 5451
5492 5493 5495 5497 5498 5500 5502 5503 5505 5506 5508 5509 5511 5512 5513 5514 5515 5516 5518 5519 5520 5521 5523 5524 5525 5526 5527 5528 5529 5529 5529 5528 5528 5528 5528 5528 5527 5526 5525 5523 5521 5519 5516 5513 5510 5506 5503 5498 5494 5489 5484 5479 5475 5473 5471 5471 5470 5469 5469 5468 5468 5468 5468 5468 5468 5467 5466 5465 5464 5463 5462 5461 5461 5460 5459 5457 5456 5453 5452 5451 5450 5450 5450 5450 5450
5493 5495 5496 5497 5499 5500 5502 5503 5505 5506 5508 5509 5510 5511 5512 5513 5515 5516 5517 5519 5520 5521 5522 5523 5524 5525 5526 5527 5527 5527 5526 5526 5527 5527 5527 5526 5525 5524 5523 5522 5520 5517 5514 5511 5508 5505 5501 5497 5493 5489 5484 5479 5476 5473 5471 5470 5469 5469 5468 5468 5467 5467 5467 5467 5466 5466 5465 5464 5464 5463 5462 5461 5460 5460 5459 5457 5456 5454 5453 5451 5451 5450 5450 5450 5450
5494 5495 5496 5498 5499 5500 5502 5503 5504 5506 5507 5508 5509 5510 5512 5513 5514 5516 5517 5518 5519 5520 5521 5522 5522 5523 5524 5525 5525 5525 5525 5525 5525 5525 5525 5524 5524 5523 5521 5520 5518 5516 5513 5510 5507 5504 5500 5496 5493 5489 5484 5480 5476 5473 5471 5470 5469 5468 5467 5467 5467 5466 5466 5466 5466 5465 5464 5464 5464 5463 5463 5461 5460 5460 5459 5458 5457 5456 5455 5454 5453 5452 5452 5452 5452
5495 5496 5497 5498 5499 5500 5501 5503 5504 5505 5506 5507 5509 5510 5511 5513 5514 5515 5516 5517 5518 5519 5520 5521 5521 5522 5522 5523 5523 5523 5523 5523 5523 5523 5523 5523 5522 5521 5520 5518 5516 5514 5512 5509 5506 5503 5499 5496 5493 5489 5485 5481 5477 5474 5471 5470 5469 5468 5467 5466 5466 5466 5466 5465 5465 5464 5464 5464 5464 5464 5463 5462 5461 5460 5460 5459 5458 5458 5457 5456 5455 5455 5454 5454 5454
5495 5496 5497 5498 5499 5500 5501 5502 5504 5505 5506 5507 5508 5509 5511 5512 5513 5514 5515 5516 5517 5518 5519 5519 5520 5520 5521 5521 5522 5522 5522 5522 5522 5521 5521 5521 5520 5519 5518 5516 5515 5512 5510 5508 5505 5502 5499 5496 5493 5489 5486 5482 5479 5475 5472 5470 5468 5468 5467 5466 5466 5466 5466 5465 5465 5464 5464 5464 5464 5464 5463 5462 5462 5461 5461 5460 5460 5459 5459 5458 5457 5457 5457 5457 5456
5495 5496 5497 5498 5499 5500 5501 5503 5504 5505 5506 5507 5508 5509 5510 5511 5512 5513 5514 5515 5516 5517 5517 5518 5518 5519 5519 5520 5520 5520 5520 5520 5520 5519 5519 5519 5518 5518 5517 5515 5513 5511 5509 5507 5504 5502 5499 5496 5493 5490 5486 5483 5480 5476 5473 5470 5468 5467 5467 5466 5465 5465 5465 5465 5465 5465 5465 5465 5465 5465 5464 5463 5463 5462 5462 5462 5461 5461 5460 5460 5460 5459 5459 5459 5459
5496 5497 5498 5499 5499 5500 5501 5502 5504 5505 5506 5507 5508 5509 5510 5511 5511 5512 5513 5513 5514 5515 5515 5516 5517 5517 5517 5518 5518 5518 5518 5518 5518 5518 5517 5517 5516 5516 5515 5514 5512 5510 5508 5506 5504 5501 5498 5495 5493 5490 5487 5484 5481 5478 5474 5471 5468 5467 5467 5466 5465 5465 5465 5465 5465 5465 5465 5465 5465 5465 5465 5464 5464 5463 5463 5463 5462 5462 5462 5461 5461 5461 5461 5461 5461